Date String (YYYY-MM-DD hh:mm:ss) UTC,Instrument flags,Ambient pressure (hPa),Sample flow (lpm),Bypass flow (lpm),Sample temperature (°C),Ambient temperature (°C),ASC tube jacket temperature (°C),LED temperature (°C),Box temperature (°C),Sample RH (%),Span deviation,Mass concentration (μg/m³),Mass concentration (μg/m³),Mass concentration (μg/m³)
DateTimeUTC,F1_M11,P_M11,Q1_M11,Q2_M11,T1_M11,T2_M11,T3_M11,T4_M11,T5_M11,U1_M11,ZSPAN_M11,X0_M11,X2_M11,X1_M11
2021-12-26 23:00:00,,0809.6,5.01,0.00,21.1,20.5,00.0,30.3,22.6,17.8,0000.0,0005.46,0000.91,0000.29
2021-12-26 23:01:00,,0809.7,5.00,0.00,21.1,20.5,00.0,30.3,22.7,17.7,0000.0,0005.74,0000.90,0000.29
2021-12-26 23:02:00,,0809.9,4.99,0.00,21.1,20.4,00.0,30.3,22.6,17.7,0000.0,0005.47,0000.88,0000.29
2021-12-26 23:03:00,,0809.7,5.01,0.00,21.1,20.4,00.0,30.3,22.6,17.6,0000.0,0005.51,0000.89,0000.28
2021-12-26 23:04:00,,0809.8,4.99,0.00,21.0,20.4,00.0,30.3,22.6,17.7,0000.0,0004.34,0000.86,0000.29
2021-12-26 23:05:00,,0809.7,5.00,0.00,21.0,20.3,00.0,30.2,22.5,17.6,0000.0,0003.43,0000.83,0000.29
2021-12-26 23:06:00,,0809.8,5.00,0.00,21.0,20.3,00.0,30.2,22.5,17.1,0000.0,0004.29,0000.84,0000.28
2021-12-26 23:07:00,,0809.9,5.01,0.00,21.0,20.3,00.0,30.2,22.5,16.1,0000.0,0004.39,0000.85,0000.28
2021-12-26 23:08:00,,0809.7,4.99,0.00,21.0,20.8,00.0,30.2,22.7,13.4,0000.0,0004.43,0000.81,0000.27
2021-12-26 23:09:00,,0809.8,5.00,0.00,21.2,21.8,00.0,30.2,23.1,12.9,0000.0,0005.35,0000.81,0000.27
2021-12-26 23:10:00,,0809.7,4.99,0.00,21.4,22.6,00.0,30.3,23.4,12.8,0000.0,0005.27,0000.81,0000.28
2021-12-26 23:11:00,,0809.7,5.02,0.00,21.5,22.5,00.0,30.3,23.4,12.3,0000.0,0005.50,0000.84,0000.27
2021-12-26 23:12:00,,0809.9,5.00,0.00,21.5,22.2,00.0,30.4,23.4,11.6,0000.0,0005.11,0000.87,0000.27
2021-12-26 23:13:00,,0809.9,4.99,0.00,21.5,21.9,00.0,30.4,23.3,11.6,0000.0,0005.00,0000.87,0000.26
2021-12-26 23:14:00,,0809.9,5.01,0.00,21.5,21.7,00.0,30.4,23.2,11.7,0000.0,0004.79,0000.84,0000.26
2021-12-26 23:15:00,,0809.9,4.99,0.00,21.5,21.5,00.0,30.4,23.2,11.7,0000.0,0004.80,0000.86,0000.26
2021-12-26 23:16:00,,0810.1,5.00,0.00,21.5,21.3,00.0,30.4,23.2,11.6,0000.0,0004.56,0000.86,0000.26
2021-12-26 23:17:00,,0810.2,5.01,0.00,21.5,21.2,00.0,30.4,23.1,11.6,0000.0,0003.98,0000.86,0000.26
2021-12-26 23:18:00,,0810.4,5.01,0.00,21.5,21.2,00.0,30.4,23.2,11.5,0000.0,0004.19,0000.87,0000.25
2021-12-26 23:19:00,,0810.5,5.00,0.00,21.5,21.1,00.0,30.4,23.2,11.6,0000.0,0004.05,0000.87,0000.25
2021-12-26 23:20:00,,0810.6,4.99,0.00,21.5,21.1,00.0,30.4,23.2,11.9,0000.0,0003.28,0000.93,0000.24
2021-12-26 23:21:00,,0810.6,5.02,0.00,21.5,21.1,00.0,30.4,23.2,12.3,0000.0,0003.44,0000.92,0000.23
2021-12-26 23:22:00,,0810.5,4.99,0.00,21.5,21.1,00.0,30.5,23.2,12.5,0000.0,0003.32,0000.87,0000.22
2021-12-26 23:23:00,,0810.4,5.00,0.00,21.5,21.1,00.0,30.5,23.2,12.7,0000.0,0003.16,0000.82,0000.22
2021-12-26 23:24:00,,0810.4,5.01,0.00,21.5,21.1,00.0,30.5,23.2,12.7,0000.0,0003.21,0000.82,0000.22
2021-12-26 23:25:00,,0810.4,4.99,0.00,21.6,21.1,00.0,30.5,23.3,12.8,0000.0,0003.26,0000.84,0000.21
2021-12-26 23:26:00,,0810.5,5.02,0.00,21.6,21.1,00.0,30.5,23.3,13.2,0000.0,0003.19,0000.80,0000.20
2021-12-26 23:27:00,,0810.5,4.98,0.00,21.6,21.1,00.0,30.5,23.3,13.8,0000.0,0003.04,0000.79,0000.18
2021-12-26 23:28:00,,0810.5,5.01,0.00,21.6,21.2,00.0,30.5,23.3,14.0,0000.0,0002.59,0000.71,0000.17
2021-12-26 23:29:00,,0810.6,4.99,0.00,21.6,21.2,00.0,30.5,23.3,14.7,0000.0,0002.39,0000.70,0000.17
2021-12-26 23:30:00,,0810.7,5.01,0.00,21.6,21.2,00.0,30.5,23.3,15.0,0000.0,0002.37,0000.70,0000.18
2021-12-26 23:31:00,,0810.8,4.99,0.00,21.6,21.2,00.0,30.5,23.3,15.0,0000.0,0002.61,0000.69,0000.18
2021-12-26 23:32:00,,0810.8,5.01,0.00,21.6,21.2,00.0,30.6,23.3,15.0,0000.0,0002.60,0000.66,0000.18
2021-12-26 23:33:00,,0810.8,4.99,0.00,21.6,21.2,00.0,30.6,23.4,15.0,0000.0,0002.94,0000.67,0000.18
2021-12-26 23:34:00,,0810.7,5.02,0.00,21.7,21.2,00.0,30.6,23.4,14.9,0000.0,0002.93,0000.69,0000.19
2021-12-26 23:35:00,,0810.7,4.99,0.00,21.7,21.1,00.0,30.6,23.4,14.9,0000.0,0002.87,0000.67,0000.19
2021-12-26 23:36:00,,0810.8,5.00,0.00,21.7,21.2,00.0,30.6,23.4,14.6,0000.0,0003.08,0000.63,0000.19
2021-12-26 23:37:00,,0810.9,5.00,0.00,21.7,21.1,00.0,30.6,23.4,14.5,0000.0,0003.48,0000.66,0000.19
2021-12-26 23:38:00,,0811.0,4.99,0.00,21.7,21.1,00.0,30.6,23.4,14.6,0000.0,0003.37,0000.65,0000.20
2021-12-26 23:39:00,,0811.1,4.99,0.00,21.7,21.1,00.0,30.6,23.4,14.0,0000.0,0003.39,0000.66,0000.20
2021-12-26 23:40:00,,0811.0,5.02,0.00,21.7,21.1,00.0,30.6,23.4,13.7,0000.0,0003.30,0000.63,0000.20
2021-12-26 23:41:00,,0811.0,4.99,0.00,21.7,21.1,00.0,30.6,23.4,13.6,0000.0,0003.15,0000.62,0000.20
2021-12-26 23:42:00,,0811.0,4.99,0.00,21.7,21.1,00.0,30.6,23.4,13.6,0000.0,0004.07,0000.60,0000.20
2021-12-26 23:43:00,,0811.0,5.01,0.00,21.7,21.1,00.0,30.6,23.4,13.5,0000.0,0003.97,0000.58,0000.20
2021-12-26 23:44:00,,0811.1,4.99,0.00,21.7,21.1,00.0,30.6,23.4,13.1,0000.0,0003.40,0000.55,0000.19
2021-12-26 23:45:00,,0811.1,5.01,0.00,21.7,21.1,00.0,30.6,23.4,13.3,0000.0,0003.44,0000.51,0000.18
2021-12-26 23:46:00,,0811.2,5.00,0.00,21.7,21.1,00.0,30.6,23.4,13.2,0000.0,0003.44,0000.51,0000.17
2021-12-26 23:47:00,,0811.2,4.99,0.00,21.7,21.1,00.0,30.7,23.4,13.1,0000.0,0003.26,0000.53,0000.17
2021-12-26 23:48:00,,0811.2,5.00,0.00,21.7,21.1,00.0,30.7,23.4,12.8,0000.0,0002.95,0000.52,0000.17
2021-12-26 23:49:00,,0811.2,5.01,0.00,21.7,21.1,00.0,30.7,23.4,12.5,0000.0,0003.12,0000.53,0000.17
2021-12-26 23:50:00,,0811.2,4.99,0.00,21.7,21.1,00.0,30.7,23.4,12.2,0000.0,0003.83,0000.52,0000.16
2021-12-26 23:51:00,,0811.3,5.01,0.00,21.7,21.1,00.0,30.7,23.4,11.5,0000.0,0004.52,0000.51,0000.16
2021-12-26 23:52:00,,0811.4,5.00,0.00,21.7,21.1,00.0,30.7,23.3,11.3,0000.0,0005.07,0000.50,0000.15
2021-12-26 23:53:00,,0811.4,4.99,0.00,21.7,21.1,00.0,30.7,23.3,11.5,0000.0,0004.67,0000.49,0000.15
2021-12-26 23:54:00,,0811.2,5.01,0.00,21.7,21.1,00.0,30.7,23.4,11.8,0000.0,0004.49,0000.48,0000.15
2021-12-26 23:55:00,,0811.2,5.00,0.00,21.7,21.0,00.0,30.7,23.4,11.8,0000.0,0004.58,0000.47,0000.14
2021-12-26 23:56:00,,0811.2,5.00,0.00,21.7,21.0,00.0,30.7,23.3,11.6,0000.0,0005.01,0000.46,0000.14
2021-12-26 23:57:00,,0811.2,5.01,0.00,21.7,21.1,00.0,30.7,23.3,11.6,0000.0,0004.81,0000.42,0000.13
2021-12-26 23:58:00,,0811.2,4.98,0.00,21.7,21.1,00.0,30.7,23.3,12.4,0000.0,0004.62,0000.37,0000.13
2021-12-26 23:59:00,,0811.2,5.01,0.00,21.7,21.0,00.0,30.7,23.3,11.5,0000.0,0004.60,0000.32,0000.11
